QPF
0.19 0.14 0.14 0.18 0.19 0.20 0.16 0.12 0.11 0.09 0.10 0.07 0.05 0.06 0.05 0.06 0.08 0.10 0.12 0.12 0.13 0.12 0.12 0.15 0.21 0.19 0.18 0.21 0.22 0.18 0.17 0.15 0.17 0.18 0.16 0.15 0.12 0.10 0.09 0.10 0.11 0.09 0.06
0.16 0.14 0.17 0.20 0.17 0.14 0.13 0.10 0.09 0.08 0.08 0.06 0.06 0.06 0.05 0.05 0.05 0.07 0.08 0.08 0.09 0.10 0.11 0.15 0.22 0.18 0.18 0.19 0.20 0.17 0.16 0.14 0.14 0.16 0.25 0.25 0.19 0.15 0.12 0.12 0.12 0.10 0.08
0.10 0.11 0.16 0.23 0.16 0.10 0.09 0.07 0.06 0.06 0.05 0.06 0.06 0.06 0.07 0.07 0.07 0.07 0.08 0.08 0.09 0.10 0.11 0.18 0.27 0.20 0.18 0.19 0.19 0.18 0.20 0.20 0.15 0.18 0.30 0.29 0.23 0.20 0.14 0.12 0.10 0.09 0.08
0.07 0.08 0.15 0.22 0.18 0.14 0.11 0.08 0.06 0.05 0.05 0.07 0.08 0.08 0.08 0.08 0.10 0.10 0.09 0.09 0.10 0.13 0.16 0.21 0.31 0.23 0.22 0.23 0.20 0.20 0.23 0.20 0.15 0.15 0.18 0.20 0.17 0.15 0.13 0.11 0.09 0.09 0.06
0.07 0.06 0.12 0.21 0.20 0.18 0.15 0.14 0.11 0.08 0.06 0.06 0.09 0.10 0.12 0.11 0.11 0.12 0.09 0.08 0.09 0.12 0.17 0.22 0.32 0.29 0.26 0.24 0.21 0.22 0.22 0.21 0.19 0.13 0.11 0.13 0.11 0.10 0.09 0.08 0.06 0.07 0.05
0.05 0.04 0.09 0.19 0.23 0.23 0.20 0.16 0.16 0.14 0.10 0.08 0.08 0.09 0.12 0.12 0.13 0.13 0.11 0.09 0.09 0.09 0.12 0.14 0.21 0.31 0.27 0.19 0.17 0.17 0.20 0.18 0.15 0.10 0.11 0.10 0.10 0.08 0.07 0.06 0.05 0.05 0.04
0.05 0.04 0.06 0.14 0.19 0.25 0.30 0.30 0.25 0.22 0.18 0.14 0.11 0.11 0.11 0.11 0.11 0.11 0.12 0.12 0.10 0.10 0.10 0.10 0.15 0.29 0.23 0.15 0.12 0.11 0.10 0.09 0.09 0.09 0.09 0.10 0.09 0.06 0.05 0.04 0.04 0.03 0.04
0.04 0.04 0.04 0.11 0.14 0.19 0.25 0.31 0.28 0.23 0.20 0.16 0.14 0.14 0.12 0.11 0.12 0.11 0.11 0.11 0.11 0.11 0.11 0.12 0.16 0.21 0.18 0.13 0.11 0.12 0.09 0.07 0.07 0.08 0.08 0.08 0.07 0.05 0.04 0.04 0.04 0.04 0.03
0.05 0.05 0.05 0.10 0.11 0.12 0.19 0.24 0.28 0.25 0.21 0.19 0.18 0.17 0.15 0.14 0.13 0.11 0.10 0.10 0.09 0.10 0.10 0.11 0.14 0.14 0.12 0.10 0.09 0.10 0.07 0.08 0.07 0.09 0.07 0.06 0.06 0.06 0.06 0.05 0.04 0.03 0.03
0.04 0.04 0.04 0.08 0.11 0.09 0.12 0.16 0.18 0.16 0.15 0.13 0.13 0.14 0.13 0.13 0.11 0.10 0.09 0.09 0.08 0.08 0.08 0.08 0.09 0.08 0.07 0.07 0.08 0.06 0.06 0.05 0.06 0.06 0.06 0.05 0.05 0.05 0.05 0.04 0.03 0.03 0.03
0.04 0.03 0.04 0.09 0.10 0.07 0.07 0.08 0.10 0.10 0.11 0.11 0.11 0.10 0.10 0.09 0.07 0.08 0.08 0.08 0.07 0.05 0.05 0.05 0.05 0.05 0.05 0.06 0.06 0.05 0.05 0.04 0.04 0.04 0.04 0.04 0.04 0.05 0.05 0.04 0.04 0.03 0.05
0.03 0.03 0.05 0.11 0.11 0.06 0.05 0.05 0.08 0.06 0.06 0.07 0.08 0.07 0.08 0.07 0.06 0.06 0.07 0.07 0.06 0.04 0.03 0.03 0.04 0.04 0.05 0.05 0.05 0.05 0.04 0.04 0.05 0.05 0.05 0.04 0.04 0.04 0.05 0.04 0.04 0.04 0.05
0.03 0.04 0.07 0.12 0.12 0.06 0.08 0.05 0.05 0.05 0.05 0.05 0.04 0.03 0.04 0.04 0.04 0.05 0.07 0.06 0.07 0.04 0.03 0.02 0.03 0.03 0.04 0.05 0.05 0.05 0.04 0.04 0.04 0.04 0.05 0.04 0.03 0.02 0.03 0.04 0.03 0.04 0.05
0.03 0.04 0.07 0.10 0.10 0.07 0.07 0.05 0.03 0.03 0.03 0.04 0.03 0.03 0.02 0.04 0.04 0.05 0.07 0.06 0.05 0.05 0.05 0.03 0.03 0.03 0.03 0.03 0.03 0.03 0.04 0.04 0.04 0.04 0.04 0.02 0.01 0.01 0.02 0.03 0.04 0.03 0.04
0.03 0.04 0.06 0.09 0.08 0.07 0.06 0.05 0.04 0.04 0.03 0.02 0.03 0.03 0.02 0.03 0.04 0.06 0.07 0.07 0.05 0.04 0.05 0.04 0.02 0.03 0.04 0.03 0.03 0.03 0.03 0.03 0.04 0.04 0.04 0.02 0.01 0.01 0.02 0.02 0.03 0.04 0.04
0.02 0.03 0.05 0.07 0.06 0.06 0.05 0.04 0.05 0.04 0.05 0.04 0.04 0.03 0.04 0.04 0.04 0.06 0.06 0.06 0.04 0.03 0.04 0.03 0.03 0.04 0.04 0.04 0.04 0.03 0.03 0.02 0.03 0.03 0.04 0.04 0.02 0.01 0.02 0.02 0.03 0.04 0.05
0.02 0.02 0.03 0.04 0.04 0.04 0.04 0.04 0.03 0.03 0.03 0.03 0.04 0.03 0.04 0.06 0.05 0.04 0.04 0.04 0.04 0.03 0.03 0.03 0.03 0.03 0.03 0.03 0.04 0.03 0.03 0.03 0.02 0.03 0.03 0.03 0.02 0.01 0.01 0.02 0.02 0.03 0.05
0.03 0.02 0.02 0.02 0.02 0.03 0.04 0.06 0.03 0.02 0.02 0.02 0.02 0.02 0.02 0.04 0.04 0.04 0.03 0.04 0.04 0.02 0.02 0.03 0.03 0.02 0.03 0.03 0.03 0.03 0.04 0.04 0.03 0.03 0.03 0.03 0.04 0.04 0.03 0.03 0.03 0.03 0.04
0.02 0.02 0.02 0.02 0.02 0.02 0.03 0.03 0.03 0.02 0.01 0.01 0.01 0.01 0.02 0.03 0.03 0.02 0.04 0.04 0.03 0.03 0.03 0.02 0.02 0.02 0.02 0.02 0.02 0.03 0.02 0.02 0.02 0.02 0.03 0.03 0.03 0.04 0.03 0.04 0.03 0.03 0.03
0.02 0.02 0.01 0.01 0.01 0.02 0.02 0.02 0.02 0.02 0.01 0.01 0.02 0.01 0.01 0.02 0.02 0.02 0.03 0.03 0.03 0.03 0.03 0.03 0.04 0.03 0.03 0.02 0.01 0.03 0.02 0.01 0.01 0.02 0.02 0.03 0.03 0.02 0.04 0.05 0.05 0.05 0.03
0.02 0.02 0.02 0.01 0.02 0.03 0.03 0.02 0.02 0.02 0.02 0.02 0.02 0.01 0.00 0.00 0.01 0.03 0.03 0.04 0.03 0.05 0.04 0.04 0.04 0.03 0.03 0.03 0.03 0.04 0.02 0.02 0.03 0.02 0.01 0.02 0.02 0.03 0.05 0.05 0.04 0.05 0.05
0.02 0.01 0.01 0.01 0.02 0.02 0.03 0.03 0.03 0.03 0.03 0.03 0.02 0.01 0.01 0.00 0.01 0.02 0.04 0.05 0.06 0.07 0.06 0.06 0.06 0.05 0.05 0.05 0.05 0.05 0.05 0.05 0.04 0.02 0.01 0.01 0.03 0.03 0.05 0.05 0.05 0.06 0.06
0.02 0.01 0.01 0.02 0.01 0.01 0.03 0.03 0.03 0.05 0.04 0.04 0.03 0.03 0.03 0.02 0.02 0.03 0.04 0.05 0.06 0.06 0.09 0.08 0.07 0.06 0.06 0.06 0.06 0.07 0.08 0.08 0.06 0.03 0.01 0.01 0.03 0.04 0.05 0.06 0.05 0.05 0.05
0.01 0.00 0.00 0.01 0.01 0.02 0.03 0.04 0.03 0.04 0.03 0.03 0.02 0.03 0.03 0.01 0.02 0.03 0.04 0.04 0.05 0.04 0.07 0.06 0.07 0.05 0.06 0.06 0.07 0.07 0.06 0.06 0.06 0.05 0.04 0.02 0.02 0.02 0.03 0.04 0.05 0.06 0.04
0.00 0.00 0.00 0.01 0.01 0.02 0.03 0.04 0.04 0.05 0.04 0.03 0.03 0.04 0.04 0.04 0.03 0.03 0.02 0.03 0.03 0.03 0.04 0.04 0.05 0.05 0.06 0.06 0.07 0.07 0.07 0.08 0.06 0.06 0.05 0.05 0.03 0.02 0.02 0.03 0.04 0.06 0.06
0.00 0.00 0.00 0.01 0.01 0.02 0.03 0.02 0.03 0.04 0.04 0.05 0.05 0.05 0.04 0.04 0.04 0.03 0.02 0.03 0.03 0.04 0.03 0.02 0.03 0.05 0.07 0.07 0.07 0.07 0.07 0.06 0.06 0.06 0.05 0.05 0.06 0.04 0.03 0.03 0.04 0.05 0.05
MSLP
1013.00 1012.55 1012.21 1012.04 1012.06 1012.20 1012.37 1012.46 1012.37 1012.08 1011.60 1010.99 1010.36 1009.78 1009.33 1009.03 1008.87 1008.80 1008.77 1008.75 1008.72 1008.69 1008.70 1008.76 1008.89 1009.12 1009.42 1009.76 1010.14 1010.54 1010.97 1011.45 1011.99 1012.60 1013.24 1013.88 1014.45 1014.90 1015.20 1015.34 1015.36 1015.33 1015.30
1012.90 1012.56 1012.33 1012.26 1012.33 1012.49 1012.65 1012.73 1012.64 1012.38 1011.97 1011.46 1010.95 1010.49 1010.14 1009.91 1009.76 1009.66 1009.58 1009.49 1009.39 1009.30 1009.26 1009.29 1009.42 1009.65 1009.95 1010.29 1010.67 1011.06 1011.48 1011.92 1012.42 1012.96 1013.52 1014.06 1014.53 1014.90 1015.13 1015.24 1015.27 1015.27 1015.31
1012.72 1012.53 1012.44 1012.48 1012.62 1012.79 1012.93 1012.97 1012.86 1012.62 1012.26 1011.87 1011.49 1011.19 1010.98 1010.84 1010.75 1010.66 1010.54 1010.39 1010.23 1010.08 1010.00 1010.00 1010.12 1010.33 1010.62 1010.95 1011.29 1011.63 1011.98 1012.35 1012.76 1013.20 1013.67 1014.11 1014.51 1014.82 1015.03 1015.14 1015.21 1015.28 1015.40
1012.48 1012.46 1012.52 1012.69 1012.89 1013.09 1013.20 1013.19 1013.04 1012.79 1012.47 1012.17 1011.93 1011.78 1011.72 1011.70 1011.69 1011.64 1011.52 1011.35 1011.15 1010.97 1010.86 1010.85 1010.95 1011.14 1011.39 1011.67 1011.94 1012.19 1012.44 1012.70 1013.00 1013.34 1013.71 1014.09 1014.44 1014.73 1014.94 1015.10 1015.23 1015.37 1015.55
1012.21 1012.34 1012.56 1012.85 1013.13 1013.34 1013.43 1013.37 1013.17 1012.89 1012.60 1012.36 1012.23 1012.20 1012.27 1012.37 1012.44 1012.44 1012.36 1012.19 1011.99 1011.82 1011.71 1011.70 1011.79 1011.96 1012.16 1012.36 1012.53 1012.67 1012.79 1012.94 1013.13 1013.38 1013.70 1014.04 1014.38 1014.68 1014.93 1015.14 1015.33 1015.52 1015.76
1011.96 1012.21 1012.55 1012.94 1013.29 1013.53 1013.60 1013.49 1013.25 1012.94 1012.64 1012.44 1012.36 1012.42 1012.58 1012.76 1012.90 1012.96 1012.91 1012.79 1012.63 1012.49 1012.41 1012.43 1012.52 1012.66 1012.81 1012.92 1012.98 1013.00 1013.01 1013.05 1013.16 1013.37 1013.66 1014.01 1014.38 1014.72 1015.02 1015.27 1015.50 1015.73 1015.98
1011.77 1012.08 1012.50 1012.97 1013.37 1013.62 1013.68 1013.54 1013.26 1012.92 1012.61 1012.41 1012.37 1012.46 1012.65 1012.88 1013.06 1013.15 1013.15 1013.07 1012.96 1012.88 1012.86 1012.91 1013.02 1013.14 1013.24 1013.27 1013.24 1013.16 1013.09 1013.06 1013.14 1013.34 1013.66 1014.05 1014.46 1014.86 1015.20 1015.48 1015.71 1015.93 1016.16
1011.67 1011.99 1012.44 1012.93 1013.36 1013.62 1013.67 1013.52 1013.23 1012.87 1012.55 1012.34 1012.30 1012.39 1012.58 1012.80 1012.98 1013.09 1013.11 1013.07 1013.01 1012.99 1013.03 1013.13 1013.26 1013.38 1013.44 1013.42 1013.33 1013.19 1013.07 1013.02 1013.11 1013.34 1013.71 1014.16 1014.64 1015.08 1015.44 1015.71 1015.91 1016.07 1016.24
1011.71 1011.98 1012.40 1012.88 1013.29 1013.55 1013.60 1013.45 1013.16 1012.80 1012.49 1012.29 1012.23 1012.31 1012.47 1012.65 1012.81 1012.89 1012.91 1012.89 1012.87 1012.90 1012.99 1013.13 1013.29 1013.42 1013.47 1013.42 1013.30 1013.14 1013.01 1012.99 1013.11 1013.41 1013.84 1014.36 1014.88 1015.34 1015.69 1015.93 1016.06 1016.14 1016.22
1011.88 1012.07 1012.43 1012.85 1013.22 1013.45 1013.49 1013.35 1013.08 1012.76 1012.47 1012.29 1012.23 1012.29 1012.42 1012.56 1012.67 1012.72 1012.71 1012.69 1012.69 1012.74 1012.87 1013.04 1013.22 1013.36 1013.41 1013.36 1013.24 1013.09 1012.99 1013.01 1013.19 1013.55 1014.04 1014.60 1015.15 1015.60 1015.92 1016.09 1016.14 1016.11 1016.09
1012.19 1012.29 1012.56 1012.89 1013.19 1013.37 1013.40 1013.26 1013.02 1012.75 1012.51 1012.37 1012.34 1012.40 1012.50 1012.61 1012.66 1012.67 1012.63 1012.58 1012.57 1012.64 1012.77 1012.96 1013.15 1013.30 1013.36 1013.33 1013.23 1013.12 1013.06 1013.13 1013.36 1013.77 1014.30 1014.87 1015.41 1015.83 1016.09 1016.18 1016.14 1016.02 1015.91
1012.61 1012.64 1012.81 1013.04 1013.25 1013.37 1013.35 1013.22 1013.01 1012.79 1012.62 1012.53 1012.54 1012.62 1012.72 1012.80 1012.82 1012.78 1012.70 1012.63 1012.60 1012.65 1012.78 1012.96 1013.15 1013.31 1013.38 1013.38 1013.31 1013.24 1013.23 1013.35 1013.62 1014.04 1014.57 1015.13 1015.63 1015.99 1016.19 1016.21 1016.09 1015.90 1015.72
1013.11 1013.08 1013.17 1013.30 1013.41 1013.45 1013.38 1013.23 1013.04 1012.87 1012.75 1012.73 1012.79 1012.90 1013.01 1013.08 1013.09 1013.02 1012.92 1012.82 1012.76 1012.79 1012.89 1013.06 1013.24 1013.40 1013.49 1013.52 1013.49 1013.46 1013.49 1013.63 1013.91 1014.33 1014.82 1015.33 1015.77 1016.07 1016.21 1016.18 1016.02 1015.79 1015.59
1013.61 1013.57 1013.60 1013.65 1013.66 1013.61 1013.48 1013.30 1013.11 1012.97 1012.90 1012.92 1013.02 1013.17 1013.30 1013.38 1013.38 1013.31 1013.19 1013.08 1013.00 1013.00 1013.08 1013.23 1013.40 1013.56 1013.66 1013.71 1013.72 1013.73 1013.79 1013.95 1014.21 1014.59 1015.03 1015.46 1015.83 1016.07 1016.16 1016.11 1015.94 1015.73 1015.54
1014.06 1014.03 1014.03 1014.02 1013.95 1013.82 1013.63 1013.41 1013.21 1013.07 1013.02 1013.07 1013.19 1013.35 1013.50 1013.59 1013.60 1013.54 1013.43 1013.31 1013.23 1013.22 1013.29 1013.42 1013.57 1013.73 1013.85 1013.92 1013.96 1014.00 1014.08 1014.23 1014.47 1014.78 1015.15 1015.50 1015.80 1015.99 1016.06 1016.01 1015.88 1015.72 1015.57
1014.38 1014.40 1014.39 1014.34 1014.22 1014.03 1013.79 1013.54 1013.31 1013.16 1013.10 1013.14 1013.26 1013.41 1013.55 1013.65 1013.68 1013.63 1013.55 1013.45 1013.39 1013.38 1013.44 1013.56 1013.71 1013.87 1014.00 1014.09 1014.16 1014.22 1014.31 1014.44 1014.63 1014.89 1015.17 1015.44 1015.67 1015.83 1015.89 1015.88 1015.82 1015.73 1015.66
1014.54 1014.60 1014.61 1014.55 1014.41 1014.19 1013.93 1013.66 1013.41 1013.23 1013.15 1013.16 1013.24 1013.36 1013.47 1013.56 1013.59 1013.58 1013.52 1013.47 1013.43 1013.45 1013.53 1013.65 1013.80 1013.96 1014.09 1014.20 1014.29 1014.36 1014.45 1014.56 1014.71 1014.89 1015.10 1015.30 1015.47 1015.60 1015.68 1015.71 1015.73 1015.73 1015.74
1014.53 1014.63 1014.66 1014.61 1014.47 1014.27 1014.02 1013.75 1013.51 1013.32 1013.20 1013.16 1013.18 1013.24 1013.31 1013.36 1013.39 1013.40 1013.39 1013.38 1013.39 1013.45 1013.55 1013.68 1013.84 1014.00 1014.13 1014.25 1014.34 1014.42 1014.50 1014.59 1014.69 1014.82 1014.95 1015.08 1015.21 1015.31 1015.41 1015.50 1015.59 1015.68 1015.78
1014.37 1014.48 1014.53 1014.51 1014.41 1014.26 1014.06 1013.84 1013.62 1013.43 1013.29 1013.19 1013.14 1013.12 1013.12 1013.13 1013.14 1013.16 1013.19 1013.24 1013.31 1013.42 1013.55 1013.70 1013.86 1014.01 1014.14 1014.25 1014.34 1014.41 1014.48 1014.54 1014.61 1014.68 1014.75 1014.82 1014.90 1014.99 1015.09 1015.22 1015.38 1015.55 1015.72
1014.11 1014.23 1014.29 1014.29 1014.25 1014.17 1014.05 1013.90 1013.74 1013.58 1013.42 1013.28 1013.15 1013.05 1012.97 1012.92 1012.91 1012.93 1013.00 1013.10 1013.23 1013.38 1013.55 1013.72 1013.88 1014.02 1014.13 1014.22 1014.30 1014.35 1014.40 1014.44 1014.47 1014.50 1014.52 1014.54 1014.58 1014.64 1014.75 1014.90 1015.10 1015.33 1015.55
1013.83 1013.92 1013.98 1014.01 1014.03 1014.03 1014.01 1013.96 1013.88 1013.76 1013.61 1013.42 1013.23 1013.04 1012.88 1012.77 1012.72 1012.74 1012.83 1012.97 1013.15 1013.36 1013.56 1013.74 1013.89 1014.01 1014.10 1014.16 1014.21 1014.24 1014.27 1014.29 1014.30 1014.29 1014.27 1014.26 1014.25 1014.29 1014.38 1014.54 1014.76 1015.02 1015.29
1013.57 1013.63 1013.67 1013.72 1013.79 1013.87 1013.95 1014.00 1014.01 1013.95 1013.81 1013.60 1013.35 1013.09 1012.85 1012.67 1012.57 1012.57 1012.67 1012.84 1013.06 1013.30 1013.52 1013.71 1013.85 1013.95 1014.00 1014.03 1014.05 1014.06 1014.07 1014.08 1014.07 1014.05 1014.01 1013.96 1013.93 1013.94 1014.01 1014.15 1014.37 1014.66 1014.96
1013.39 1013.40 1013.42 1013.47 1013.57 1013.71 1013.87 1014.01 1014.09 1014.08 1013.97 1013.75 1013.46 1013.13 1012.82 1012.57 1012.42 1012.39 1012.48 1012.67 1012.91 1013.16 1013.39 1013.58 1013.70 1013.77 1013.79 1013.79 1013.78 1013.77 1013.77 1013.78 1013.77 1013.75 1013.70 1013.65 1013.60 1013.58 1013.63 1013.76 1013.97 1014.26 1014.58
1013.28 1013.25 1013.23 1013.27 1013.37 1013.54 1013.74 1013.94 1014.08 1014.12 1014.03 1013.80 1013.48 1013.10 1012.72 1012.41 1012.21 1012.14 1012.21 1012.38 1012.62 1012.87 1013.10 1013.27 1013.37 1013.41 1013.40 1013.37 1013.34 1013.33 1013.33 1013.35 1013.36 1013.36 1013.33 1013.28 1013.24 1013.21 1013.24 1013.35 1013.55 1013.84 1014.18
1013.22 1013.15 1013.10 1013.10 1013.18 1013.35 1013.56 1013.79 1013.96 1014.03 1013.95 1013.73 1013.38 1012.96 1012.54 1012.17 1011.91 1011.79 1011.82 1011.96 1012.17 1012.40 1012.61 1012.76 1012.84 1012.85 1012.82 1012.77 1012.73 1012.71 1012.73 1012.77 1012.81 1012.84 1012.85 1012.83 1012.81 1012.80 1012.83 1012.93 1013.13 1013.41 1013.77
1013.17 1013.08 1012.98 1012.94 1012.98 1013.12 1013.32 1013.54 1013.71 1013.79 1013.73 1013.51 1013.16 1012.72 1012.27 1011.85 1011.54 1011.37 1011.34 1011.43 1011.59 1011.78 1011.95 1012.07 1012.12 1012.11 1012.05 1011.99 1011.95 1011.94 1011.97 1012.03 1012.11 1012.19 1012.24 1012.27 1012.29 1012.31 1012.36 1012.47 1012.67 1012.96 1013.34
Thickness
5789 5789 5788 5790 5791 5791 5791 5791 5791 5791 5792 5792 5792 5792 5792 5791 5791 5789 5788 5787 5786 5785 5784 5783 5781 5779 5778 5777 5776 5775 5773 5772 5771 5769 5768 5766 5764 5763 5761 5760 5760 5759 5758
5791 5789 5788 5789 5789 5790 5789 5789 5789 5790 5790 5790 5790 5790 5789 5789 5789 5787 5787 5786 5785 5784 5783 5781 5780 5778 5776 5775 5774 5773 5772 5771 5769 5768 5767 5765 5763 5762 5760 5759 5759 5758 5757
5793 5790 5788 5788 5789 5789 5789 5788 5788 5788 5788 5789 5788 5788 5788 5787 5787 5786 5786 5785 5784 5782 5781 5779 5778 5776 5774 5773 5772 5771 5770 5769 5768 5767 5766 5763 5761 5760 5759 5758 5757 5756 5755
5795 5791 5788 5788 5788 5788 5788 5787 5787 5787 5787 5787 5786 5786 5786 5785 5785 5784 5784 5783 5782 5780 5779 5777 5775 5774 5773 5772 5771 5770 5769 5768 5767 5766 5765 5763 5761 5758 5757 5756 5755 5754 5753
5796 5791 5787 5787 5787 5787 5787 5787 5786 5786 5786 5785 5785 5785 5785 5784 5783 5782 5781 5780 5779 5778 5777 5776 5774 5773 5771 5770 5769 5768 5768 5766 5766 5765 5764 5762 5760 5758 5756 5755 5754 5753 5752
5796 5791 5787 5786 5786 5786 5786 5785 5785 5785 5784 5784 5784 5784 5783 5782 5781 5780 5779 5778 5778 5777 5776 5775 5773 5772 5770 5769 5769 5768 5767 5766 5766 5765 5764 5761 5759 5757 5755 5754 5753 5752 5751
5796 5792 5788 5786 5786 5785 5785 5784 5784 5784 5783 5782 5782 5782 5781 5780 5779 5778 5777 5776 5776 5775 5774 5773 5772 5771 5770 5768 5768 5767 5767 5767 5766 5765 5763 5761 5758 5756 5754 5753 5752 5751 5750
5798 5793 5788 5785 5785 5784 5784 5783 5783 5782 5782 5781 5781 5780 5779 5779 5778 5777 5776 5775 5775 5774 5773 5772 5771 5770 5769 5768 5767 5767 5766 5766 5766 5765 5763 5760 5758 5756 5754 5752 5751 5750 5749
5800 5796 5791 5787 5784 5783 5783 5782 5782 5781 5781 5780 5780 5779 5778 5777 5776 5776 5775 5774 5774 5773 5772 5771 5770 5769 5768 5768 5767 5766 5766 5765 5765 5764 5763 5759 5757 5755 5754 5752 5750 5749 5748
5800 5797 5795 5791 5787 5785 5783 5782 5781 5780 5780 5779 5779 5778 5777 5776 5775 5775 5774 5773 5772 5772 5771 5770 5770 5769 5768 5768 5767 5767 5766 5765 5765 5764 5762 5760 5757 5755 5754 5752 5750 5749 5748
5797 5797 5796 5794 5790 5788 5786 5783 5781 5780 5779 5778 5778 5777 5777 5776 5775 5775 5774 5773 5772 5771 5771 5770 5770 5769 5768 5768 5768 5767 5766 5766 5766 5765 5762 5760 5757 5756 5754 5752 5750 5749 5748
5793 5795 5795 5793 5791 5790 5788 5784 5783 5781 5779 5779 5778 5778 5777 5777 5777 5775 5773 5772 5771 5771 5770 5770 5770 5769 5769 5769 5768 5767 5767 5767 5766 5764 5761 5759 5757 5756 5755 5753 5751 5749 5748
5794 5795 5794 5792 5790 5790 5788 5786 5784 5783 5781 5780 5779 5779 5778 5778 5777 5774 5773 5772 5771 5770 5771 5770 5770 5770 5770 5770 5770 5769 5769 5768 5767 5765 5761 5759 5757 5756 5755 5753 5751 5749 5748
5794 5793 5793 5792 5789 5788 5788 5786 5785 5784 5781 5781 5780 5779 5779 5778 5777 5775 5774 5773 5773 5773 5773 5772 5772 5772 5772 5771 5771 5770 5769 5768 5767 5765 5762 5760 5758 5756 5755 5753 5751 5749 5748
5794 5793 5793 5792 5789 5787 5786 5786 5786 5785 5783 5782 5781 5780 5779 5778 5776 5775 5774 5774 5774 5774 5773 5773 5773 5772 5771 5771 5770 5770 5769 5769 5768 5766 5763 5761 5759 5757 5755 5753 5752 5750 5748
5795 5794 5793 5792 5789 5787 5786 5786 5786 5785 5784 5782 5780 5779 5779 5778 5776 5775 5774 5774 5774 5774 5774 5773 5773 5772 5770 5770 5769 5769 5769 5769 5767 5766 5763 5761 5759 5757 5755 5754 5752 5750 5748
5798 5796 5794 5793 5790 5788 5787 5787 5787 5785 5784 5782 5781 5779 5778 5777 5776 5775 5774 5773 5774 5774 5774 5773 5773 5772 5770 5770 5769 5769 5768 5768 5767 5766 5764 5761 5759 5757 5755 5753 5752 5750 5748
5801 5797 5796 5796 5791 5789 5787 5787 5787 5786 5785 5783 5781 5780 5778 5777 5777 5776 5774 5774 5774 5774 5774 5773 5771 5770 5769 5768 5767 5768 5768 5767 5766 5766 5764 5762 5760 5758 5756 5754 5752 5750 5748
5804 5799 5796 5795 5792 5790 5789 5788 5787 5786 5785 5784 5783 5781 5779 5778 5778 5776 5775 5775 5775 5774 5773 5772 5770 5768 5766 5766 5766 5767 5767 5766 5766 5765 5764 5763 5761 5760 5757 5754 5752 5750 5748
5807 5802 5798 5795 5794 5792 5790 5788 5787 5787 5786 5786 5784 5781 5780 5779 5778 5777 5776 5775 5775 5773 5771 5770 5767 5767 5766 5765 5766 5764 5765 5766 5765 5764 5763 5762 5761 5760 5758 5755 5752 5750 5748
5808 5803 5800 5797 5795 5792 5790 5787 5785 5784 5785 5785 5785 5782 5781 5780 5779 5778 5776 5775 5774 5772 5770 5769 5767 5765 5764 5765 5760 5758 5762 5765 5764 5764 5763 5762 5761 5761 5759 5756 5753 5751 5748
5809 5805 5801 5799 5797 5794 5792 5790 5789 5788 5787 5787 5786 5784 5782 5780 5779 5779 5776 5775 5774 5772 5770 5768 5766 5762 5763 5764 5759 5753 5750 5753 5758 5764 5763 5761 5761 5760 5758 5756 5754 5751 5748
5811 5808 5805 5801 5798 5796 5795 5792 5791 5788 5786 5785 5784 5783 5783 5782 5780 5778 5777 5775 5774 5772 5769 5767 5766 5762 5759 5761 5762 5755 5747 5743 5748 5756 5759 5759 5758 5757 5756 5755 5753 5750 5747
5816 5813 5808 5803 5800 5797 5796 5792 5789 5784 5781 5783 5783 5784 5783 5782 5781 5779 5777 5776 5774 5772 5769 5768 5766 5764 5761 5757 5759 5760 5757 5753 5745 5743 5750 5754 5755 5753 5753 5753 5751 5748 5746
5821 5816 5810 5805 5801 5799 5796 5794 5790 5788 5786 5787 5785 5784 5783 5782 5781 5780 5778 5776 5773 5771 5769 5768 5766 5764 5761 5758 5756 5756 5755 5754 5752 5743 5740 5745 5749 5750 5751 5750 5748 5746 5745
5824 5819 5813 5806 5802 5800 5797 5795 5792 5789 5787 5785 5783 5782 5782 5782 5781 5780 5778 5776 5773 5771 5769 5767 5765 5763 5761 5759 5757 5755 5752 5749 5747 5745 5740 5740 5741 5744 5748 5747 5746 5744 5742